This is the latest recevied weather packets stored in our database for station/object KD1KE. If no packets are shown the sender has not sent any weather packets the latest 10 day(s).
| Time | Temp. | Humidity | Pressure | Rain* | Wind** | Luminosity | Snow |
|---|---|---|---|---|---|---|---|
| 1777736717 | 5.56° C | 86% | 1012.5 hPa | 0.51 mm | - | - | - |
| 1777736179 | 5.56° C | 86% | 1012.6 hPa | 0.25 mm | - | - | - |
| 1777736148 | 5.56° C | 86% | 1012.6 hPa | 0.25 mm | - | - | - |
| 1777735637 | 5.56° C | 85% | 1012.8 hPa | 0.51 mm | - | - | - |
| 1777735488 | 5.56° C | 85% | 1012.8 hPa | 0.51 mm | - | - | - |
| 1777735096 | 5.56° C | 85% | 1012.8 hPa | 0.51 mm | - | - | - |
| 1777734827 | 5.56° C | 84% | 1012.8 hPa | 0.51 mm | - | - | - |
| 1777734557 | 5.56° C | 84% | 1012.9 hPa | 0.25 mm | - | - | - |
| 1777734167 | 5.56° C | 83% | 1012.9 hPa | 0.25 mm | - | - | - |
| 1777734017 | 5.56° C | 83% | 1013.1 hPa | 0.25 mm | - | - | - |
| 1777733508 | 6.11° C | 82% | 1013.2 hPa | 0 mm | - | - | - |
| 1777733476 | 5.56° C | 82% | 1013.2 hPa | 0 mm | - | - | - |
| 1777732936 | 6.11° C | 80% | 1013.3 hPa | 0 mm | - | - | - |
| 1777732848 | 6.11° C | 79% | 1013.3 hPa | 0 mm | - | - | - |
| 1777732396 | 6.11° C | 80% | 1013.3 hPa | 0 mm | - | - | - |
| 1777732188 | 6.11° C | 79% | 1013.3 hPa | 0 mm | - | - | - |
| 1777731856 | 6.11° C | 76% | 1013.5 hPa | 0 mm | - | - | - |
| 1777731529 | 6.11° C | 75% | 1013.3 hPa | 0 mm | - | - | - |
| 1777731316 | 6.11° C | 74% | 1013.2 hPa | 0 mm | - | - | - |
| 1777730868 | 6.11° C | 75% | 1013.1 hPa | 0 mm | - | - | - |
| 1777730776 | 6.11° C | 74% | 1013.1 hPa | 0 mm | - | - | - |
| 1777730240 | 6.11° C | 79% | 1013 hPa | 0 mm | - | - | - |
| 1777730207 | 6.11° C | 79% | 1013 hPa | 0 mm | - | - | - |
| 1777729697 | 6.11° C | 80% | 1013.1 hPa | 0 mm | - | - | - |
| 1777729548 | 6.11° C | 79% | 1013.1 hPa | 0 mm | - | - | - |
* Rain latest hour (hover to see other rain measurements)
** Current wind speed in m/s (hover to see current wind gust speed)